Voltar ao catálogo

ARIANE 2 DEB

LostGTO
NORAD 27037·DEBRIS·🇫🇷 France

Lançado Jan 27, 1989 de Guiana Space Centre

Loading…

TLE

ObsoletoSource: Space-Track

Época: May 14, 2019, 20:51 UTC

1 27037U 89006S   19134.86909627 -.00000117  00000-0  49448-3 0  9999
2 27037   8.5276   1.1676 7180467 268.3186  15.8238  2.27428675146491

Acompanhe ARIANE 2 DEB em tempo real com AllMySat

Download on the App Store